When you browse on this site, cookies collect data to enhance your experience and personalize the content and advertising you see.
Visit our Privacy Policy to learn more. By continuing to use the site, you agree to this use of cookies and data.
  • In Hungary
  • List of Countries
  • For 7 days
  • Water Temperature
  • Satellite Maps
  • Weather Map
  • News
  • Weather Widgets
  • user-avatar
    Login

    Hourly Weather Tiba

    Today, 20 November, Tuesday

    Time Temperature Precipitation Wind Pressure Humidity
    00:00 +15°C° 0.4 mm 5 mps 760 mmHg 58%
    01:00 +14°C° 0.1 mm 5 mps 760 mmHg 58%
    02:00 +14°C° 0.1 mm 5 mps 760 mmHg 59%
    03:00 +13°C° 0 mm 5 mps 760 mmHg 60%
    04:00 +13°C° 0 mm 5 mps 761 mmHg 58%
    05:00 +13°C° 0 mm 5 mps 761 mmHg 57%
    06:00 +13°C° 0 mm 5 mps 762 mmHg 56%
    07:00 +13°C° 0 mm 5 mps 762 mmHg 53%
    08:00 +13°C° 0 mm 5 mps 762 mmHg 51%
    09:00 +13°C° 0 mm 5 mps 763 mmHg 49%
    10:00 +13°C° 0 mm 5 mps 763 mmHg 46%
    11:00 +14°C° 0 mm 4 mps 763 mmHg 44%
    12:00 +14°C° 0 mm 4 mps 762 mmHg 42%
    13:00 +14°C° 0 mm 4 mps 763 mmHg 41%
    14:00 +14°C° 0 mm 3 mps 763 mmHg 40%
    15:00 +14°C° 0 mm 3 mps 763 mmHg 41%
    16:00 +15°C° 0 mm 2 mps 763 mmHg 42%
    17:00 +15°C° 0 mm 2 mps 764 mmHg 42%
    18:00 +15°C° 0 mm 2 mps 765 mmHg 42%
    19:00 +14°C° 0 mm 2 mps 765 mmHg 43%
    20:00 +14°C° 0 mm 2 mps 765 mmHg 44%
    21:00 +14°C° 0 mm 2 mps 766 mmHg 47%
    22:00 +14°C° 0 mm 2 mps 766 mmHg 48%
    23:00 +14°C° 0 mm 2 mps 766 mmHg 49%

    Tomorrow, 21 November, Wednesday

    Time Temperature Precipitation Wind Pressure Humidity
    00:00 +14°C° 0 mm 2 mps 766 mmHg 50%
    01:00 +13°C° 0 mm 2 mps 766 mmHg 51%
    02:00 +13°C° 0 mm 2 mps 766 mmHg 52%
    03:00 +13°C° 0 mm 1 mps 766 mmHg 53%
    04:00 +13°C° 0 mm 1 mps 766 mmHg 54%
    05:00 +13°C° 0 mm 1 mps 767 mmHg 54%
    06:00 +13°C° 0 mm 1 mps 767 mmHg 55%
    07:00 +13°C° 0 mm 1 mps 767 mmHg 53%
    08:00 +14°C° 0 mm 1 mps 767 mmHg 51%
    09:00 +15°C° 0 mm 1 mps 767 mmHg 49%
    10:00 +16°C° 0 mm 1 mps 766 mmHg 47%
    11:00 +16°C° 0 mm 2 mps 766 mmHg 45%
    12:00 +17°C° 0 mm 2 mps 765 mmHg 44%
    13:00 +18°C° 0 mm 2 mps 765 mmHg 44%
    14:00 +18°C° 0 mm 3 mps 765 mmHg 44%
    15:00 +18°C° 0 mm 3 mps 765 mmHg 45%
    16:00 +18°C° 0 mm 3 mps 765 mmHg 47%
    17:00 +18°C° 0 mm 2 mps 765 mmHg 49%
    18:00 +17°C° 0 mm 2 mps 765 mmHg 52%
    19:00 +17°C° 0 mm 2 mps 765 mmHg 54%
    20:00 +17°C° 0 mm 2 mps 765 mmHg 56%
    21:00 +17°C° 0 mm 2 mps 765 mmHg 59%
    22:00 +16°C° 0.2 mm 2 mps 764 mmHg 61%
    23:00 +16°C° 0.2 mm 2 mps 764 mmHg 63%

    Day after tomorrow, 22 November, Thursday

    Time Temperature Precipitation Wind Pressure Humidity
    00:00 +16°C° 0.2 mm 2 mps 763 mmHg 65%
    01:00 +16°C° 0.9 mm 2 mps 762 mmHg 67%
    02:00 +16°C° 0.9 mm 2 mps 762 mmHg 69%
    03:00 +16°C° 0.9 mm 3 mps 761 mmHg 71%
    04:00 +16°C° 1.8 mm 3 mps 760 mmHg 72%
    05:00 +14°C° 1.8 mm 3 mps 760 mmHg 73%
    06:00 +14°C° 1.8 mm 3 mps 759 mmHg 73%
    07:00 +14°C° 0.9 mm 4 mps 759 mmHg 73%
    08:00 +14°C° 0.9 mm 4 mps 758 mmHg 73%
    09:00 +15°C° 0.9 mm 4 mps 758 mmHg 73%
    10:00 +15°C° 0.4 mm 4 mps 757 mmHg 69%
    11:00 +15°C° 0.4 mm 4 mps 757 mmHg 65%
    12:00 +17°C° 0.4 mm 4 mps 756 mmHg 61%
    13:00 +17°C° 0 mm 3 mps 756 mmHg 56%
    14:00 +17°C° 0 mm 3 mps 755 mmHg 51%
    15:00 +17°C° 0 mm 2 mps 755 mmHg 46%
    16:00 +17°C° 0 mm 2 mps 755 mmHg 45%
    17:00 +16°C° 0 mm 1 mps 756 mmHg 44%
    18:00 +16°C° 0 mm 1 mps 756 mmHg 44%
    19:00 +16°C° 0 mm 1 mps 756 mmHg 45%
    20:00 +15°C° 0 mm 1 mps 757 mmHg 46%
    21:00 +15°C° 0 mm 1 mps 757 mmHg 47%
    22:00 +15°C° 0 mm 1 mps 757 mmHg 46%
    23:00 +15°C° 0 mm 1 mps 757 mmHg 46%

    23 November, Friday

    Time Temperature Precipitation Wind Pressure Humidity
    00:00 +14°C° 0 mm 2 mps 758 mmHg 46%
    01:00 +13°C° 0 mm 3 mps 758 mmHg 46%
    02:00 +13°C° 0 mm 4 mps 758 mmHg 46%
    03:00 +13°C° 0 mm 5 mps 759 mmHg 45%
    04:00 +13°C° 0 mm 5 mps 759 mmHg 44%
    05:00 +12°C° 0 mm 5 mps 760 mmHg 42%
    06:00 +12°C° 0 mm 5 mps 761 mmHg 40%
    07:00 +12°C° 0 mm 5 mps 761 mmHg 39%
    08:00 +12°C° 0 mm 5 mps 762 mmHg 39%
    09:00 +13°C° 0 mm 4 mps 762 mmHg 38%
    10:00 +13°C° 0 mm 4 mps 762 mmHg 34%
    11:00 +14°C° 0 mm 4 mps 762 mmHg 31%
    12:00 +15°C° 0 mm 4 mps 762 mmHg 27%
    13:00 +15°C° 0 mm 4 mps 762 mmHg 26%
    14:00 +15°C° 0 mm 4 mps 762 mmHg 26%
    15:00 +15°C° 0 mm 4 mps 762 mmHg 25%
    16:00 +15°C° 0 mm 4 mps 763 mmHg 27%
    17:00 +14°C° 0 mm 3 mps 764 mmHg 28%
    18:00 +13°C° 0 mm 3 mps 765 mmHg 30%
    19:00 +13°C° 0 mm 4 mps 765 mmHg 33%
    20:00 +12°C° 0 mm 4 mps 766 mmHg 36%
    21:00 +12°C° 0 mm 4 mps 766 mmHg 40%
    22:00 +12°C° 0 mm 4 mps 766 mmHg 42%
    23:00 +11°C° 0 mm 4 mps 766 mmHg 44%

    24 November, Saturday

    Time Temperature Precipitation Wind Pressure Humidity
    00:00 +11°C° 0 mm 4 mps 766 mmHg 46%
    01:00 +11°C° 0 mm 4 mps 766 mmHg 47%
    02:00 +10°C° 0 mm 5 mps 766 mmHg 48%
    03:00 +9°C° 0 mm 5 mps 766 mmHg 49%
    04:00 +9°C° 0.2 mm 5 mps 766 mmHg 52%
    05:00 +9°C° 0.2 mm 5 mps 767 mmHg 55%
    06:00 +8°C° 0.2 mm 5 mps 767 mmHg 58%
    07:00 +8°C° 0.6 mm 5 mps 767 mmHg 60%
    08:00 +8°C° 0.6 mm 6 mps 767 mmHg 61%
    09:00 +8°C° 0.6 mm 6 mps 767 mmHg 62%
    10:00 +8°C° 0.6 mm 6 mps 767 mmHg 63%
    11:00 +8°C° 0.6 mm 6 mps 767 mmHg 63%
    12:00 +8°C° 0.6 mm 6 mps 766 mmHg 63%
    13:00 +8°C° 0.9 mm 5 mps 766 mmHg 63%
    14:00 +8°C° 0.9 mm 5 mps 766 mmHg 63%
    15:00 +8°C° 0.9 mm 5 mps 766 mmHg 63%
    16:00 +8°C° 0.3 mm 5 mps 767 mmHg 63%
    17:00 +8°C° 0.3 mm 4 mps 767 mmHg 62%
    18:00 +8°C° 0.3 mm 4 mps 767 mmHg 62%
    19:00 +8°C° 0.1 mm 4 mps 768 mmHg 62%
    20:00 +10°C° 0.1 mm 4 mps 768 mmHg 61%
    21:00 +10°C° 0.1 mm 4 mps 768 mmHg 60%
    22:00 +8°C° 0 mm 4 mps 768 mmHg 60%
    23:00 +8°C° 0 mm 4 mps 768 mmHg 60%

    25 November, Sunday

    Time Temperature Precipitation Wind Pressure Humidity
    00:00 +8°C° 0 mm 4 mps 768 mmHg 59%
    01:00 +8°C° 0 mm 4 mps 768 mmHg 58%
    02:00 +8°C° 0 mm 4 mps 768 mmHg 58%
    03:00 +8°C° 0 mm 4 mps 768 mmHg 57%
    04:00 +7°C° 0 mm 4 mps 768 mmHg 56%
    05:00 +7°C° 0 mm 4 mps 768 mmHg 55%
    06:00 +7°C° 0 mm 4 mps 768 mmHg 54%
    07:00 +8°C° 0 mm 4 mps 768 mmHg 51%
    08:00 +8°C° 0 mm 4 mps 769 mmHg 49%
    09:00 +10°C° 0 mm 4 mps 769 mmHg 46%
    10:00 +11°C° 0 mm 3 mps 769 mmHg 43%
    11:00 +12°C° 0 mm 3 mps 769 mmHg 40%
    12:00 +13°C° 0 mm 2 mps 768 mmHg 37%
    13:00 +14°C° 0 mm 2 mps 768 mmHg 37%
    14:00 +14°C° 0 mm 2 mps 768 mmHg 36%
    15:00 +14°C° 0 mm 2 mps 768 mmHg 36%
    16:00 +14°C° 0 mm 2 mps 768 mmHg 38%
    17:00 +13°C° 0 mm 2 mps 768 mmHg 40%
    18:00 +13°C° 0 mm 2 mps 768 mmHg 42%
    19:00 +13°C° 0 mm 1 mps 769 mmHg 45%
    20:00 +12°C° 0 mm 1 mps 769 mmHg 47%
    21:00 +12°C° 0 mm 1 mps 769 mmHg 49%
    22:00 +12°C° 0 mm 1 mps 769 mmHg 50%
    23:00 +12°C° 0 mm 1 mps 769 mmHg 52%
    Show more